Erzurum, Turkey

4:07 PM +03 on June 22, 2017 (GMT +0300)
Erzurum

Weather History for LTCE - November, 2013

Change the Weather History Date:

Saturday, November 9, 2013

  Actual Average Record
Temperature  
Mean Temperature 41 °F -  
Max Temperature 44 °F 40 °F 60 °F (2002)
Min Temperature 38 °F 24 °F 10 °F (2011)
Degree Days  
Heating Degree Days 24    
Moisture  
Dew Point 38 °F    
Average Humidity 83    
Maximum Humidity 87    
Minimum Humidity 71    
Precipitation  
Precipitation 0.02 in 0.04 in - ()
Sea Level Pressure  
Sea Level Pressure 30.16 in    
Wind  
Wind Speed 12 mph ()    
Max Wind Speed 21 mph    
Max Gust Speed -    
Visibility 6.8 miles    
Events Rain    
Averages and records for this station are not official NWS values.
T = Trace of Precipitation, MM = Missing Value Source: Averaged Metar Reports

Daily Weather History Graph

Daily Weather History Graph

Search for Another Location

Airport or City:

Trip Planner

Search our weather history database for the weather conditions in past years. The results will help you decide how hot, cold, wet, or windy it might be!

Date:

Astronomy

Nov. 09, 2013 Rise Set
Actual Time 5:53 AM EET 4:04 PM EET
Civil Twilight 5:24 AM EET 4:33 PM EET
Nautical Twilight 4:52 AM EET 5:05 PM EET
Astronomical Twilight 4:20 AM EET 5:37 PM EET
Moon 11:15 AM EET (11/9) 10:09 PM EET (11/9)
Length of Visible Light 11h 08m
Length of Day
10h 11m
Waxing Crescent, 40% of the Moon is Illuminated
Nov 9
Waxing Crescent
Nov 10
First Quarter
Nov 17
Full
Nov 25
Last Quarter
Dec 3
New

Hourly Weather History & Observations

Time (EET) Temp. Windchill Dew Point Humidity Pressure Visibility Wind Dir Wind Speed Gust Speed Precip Events Conditions
12:20 AM 42.8 °F 35.8 °F 37.4 °F 81% 30.15 in - ENE 13.8 mph - N/A   Clear
12:50 AM 42.8 °F 35.8 °F 37.4 °F 81% 30.15 in - ENE 13.8 mph - N/A   Clear
1:20 AM 42.8 °F 36.6 °F 37.4 °F 81% 30.15 in - ENE 11.5 mph - N/A   Clear
1:50 AM 41.0 °F 35.8 °F 37.4 °F 87% 30.15 in - ENE 8.1 mph - N/A   Clear
2:00 AM 41 °F - 37 °F 80%  in 12 mi ENE 8.1 mph - -  
2:20 AM 41.0 °F 34.7 °F 37.4 °F 87% 30.15 in - ENE 10.4 mph - N/A   Clear
2:50 AM 41.0 °F 34.7 °F 37.4 °F 87% 30.15 in - ENE 10.4 mph - N/A   Clear
3:20 AM 41.0 °F 34.7 °F 37.4 °F 87% 30.15 in - ENE 10.4 mph - N/A   Clear
3:50 AM 41.0 °F 33.1 °F 35.6 °F 81% 30.15 in - East 15.0 mph - N/A   Clear
4:20 AM 41.0 °F 33.5 °F 35.6 °F 81% 30.15 in - East 13.8 mph - N/A   Clear
4:50 AM 41.0 °F 33.5 °F 35.6 °F 81% 30.15 in - East 13.8 mph - N/A   Clear
5:20 AM 41.0 °F 34.3 °F 35.6 °F 81% 30.15 in - ENE 11.5 mph - N/A   Clear
5:50 AM 39.2 °F 33.0 °F 33.8 °F 81% 30.15 in - NE 9.2 mph - N/A   Clear
6:20 AM 41.0 °F 35.2 °F 35.6 °F 81% 30.15 in - East 9.2 mph - N/A   Clear
6:50 AM 41.0 °F 34.7 °F 35.6 °F 81% 30.18 in 6.2 mi ENE 10.4 mph - N/A   Mostly Cloudy
7:20 AM 42.8 °F 37.0 °F 35.6 °F 76% 30.18 in 6.2 mi East 10.4 mph - N/A   Mostly Cloudy
7:50 AM 42.8 °F 36.6 °F 35.6 °F 76% 30.18 in 6.2 mi East 11.5 mph - N/A   Mostly Cloudy
8:00 AM 42 °F - 36 °F 72%  in 12 mi East 11.5 mph - -   Partly Cloudy
8:20 AM 42.8 °F 37.0 °F 35.6 °F 76% 30.18 in 6.2 mi ENE 10.4 mph - N/A   Mostly Cloudy
8:50 AM 44.6 °F 38.1 °F 35.6 °F 71% 30.15 in 6.2 mi ENE 13.8 mph - N/A   Mostly Cloudy
9:20 AM 44.6 °F 37.8 °F 35.6 °F 71% 30.15 in 6.2 mi East 15.0 mph - N/A   Mostly Cloudy
9:50 AM 44.6 °F 37.4 °F 35.6 °F 71% 30.15 in 6.2 mi East 16.1 mph - N/A   Mostly Cloudy
10:20 AM 44.6 °F 37.4 °F 35.6 °F 71% 30.15 in 6.2 mi ENE 16.1 mph - N/A   Mostly Cloudy
10:50 AM 44.6 °F 37.8 °F 35.6 °F 71% 30.15 in 6.2 mi East 15.0 mph - N/A   Mostly Cloudy
11:20 AM 42.8 °F 35.4 °F 37.4 °F 81% 30.15 in 6.2 mi East 15.0 mph - N/A   Mostly Cloudy
11:28 AM 42.8 °F 35.4 °F 37.4 °F 81% 30.12 in 6.2 mi East 15.0 mph - N/A Rain Light Rain
11:50 AM 42.8 °F 34.0 °F 35.6 °F 76% 30.12 in 6.2 mi East 20.7 mph - N/A Rain Light Rain
12:20 PM 42.8 °F 35.1 °F 37.4 °F 81% 30.15 in 6.2 mi East 16.1 mph - N/A   Mostly Cloudy
12:50 PM 42.8 °F 35.4 °F 37.4 °F 81% 30.15 in 6.2 mi East 15.0 mph - N/A   Mostly Cloudy
1:14 PM 41.0 °F 33.5 °F 37.4 °F 87% 30.15 in 6.2 mi East 13.8 mph - N/A Rain Light Rain
1:20 PM 41.0 °F 33.1 °F 37.4 °F 87% 30.15 in 6.2 mi East 15.0 mph - N/A Rain Light Rain
1:50 PM 42.8 °F 35.4 °F 39.2 °F 87% 30.15 in 6.2 mi East 15.0 mph - N/A Rain Light Rain
2:00 PM 42 °F - 39 °F 83%  in 12 mi East 15.0 mph - - Rain Light Rain
2:20 PM 42.8 °F 35.1 °F 39.2 °F 87% 30.15 in 6.2 mi East 16.1 mph - N/A   Mostly Cloudy
2:50 PM 42.8 °F 35.8 °F 39.2 °F 87% 30.15 in 6.2 mi East 13.8 mph - N/A   Mostly Cloudy
3:20 PM 42.8 °F 35.8 °F 39.2 °F 87% 30.15 in 6.2 mi East 13.8 mph - N/A   Mostly Cloudy
3:50 PM 42.8 °F 35.1 °F 39.2 °F 87% 30.15 in 6.2 mi East 16.1 mph - N/A   Mostly Cloudy
4:20 PM 42.8 °F 34.3 °F 39.2 °F 87% 30.15 in 6.2 mi East 19.6 mph - N/A   Mostly Cloudy
4:46 PM 42.8 °F 34.8 °F 39.2 °F 87% 30.18 in 6.2 mi East 17.3 mph - N/A Rain Light Rain
4:50 PM 42.8 °F 35.1 °F 39.2 °F 87% 30.18 in 6.2 mi East 16.1 mph - N/A Rain Light Rain
5:20 PM 42.8 °F 35.4 °F 39.2 °F 87% 30.18 in 6.2 mi East 15.0 mph - N/A Rain Light Rain
5:50 PM 42.8 °F 35.4 °F 39.2 °F 87% 30.18 in 6.2 mi East 15.0 mph - N/A   Mostly Cloudy
6:20 PM 42.8 °F 36.6 °F 39.2 °F 87% 30.18 in 6.2 mi East 11.5 mph - N/A   Mostly Cloudy
6:50 PM 42.8 °F 35.8 °F 39.2 °F 87% 30.18 in 6.2 mi ESE 13.8 mph - N/A   Mostly Cloudy
7:20 PM 42.8 °F 35.4 °F 39.2 °F 87% 30.18 in 6.2 mi East 15.0 mph - N/A   Mostly Cloudy
7:50 PM 42.8 °F 35.8 °F 39.2 °F 87% 30.18 in 6.2 mi ENE 13.8 mph - N/A   Mostly Cloudy
8:00 PM 44 °F - 39 °F 75%  in 12 mi ENE 13.8 mph - -   Partly Cloudy
8:20 PM 42.8 °F 36.2 °F 39.2 °F 87% 30.18 in 6.2 mi NE 12.7 mph - N/A   Mostly Cloudy
8:50 PM 42.8 °F 35.4 °F 39.2 °F 87% 30.18 in 6.2 mi ENE 15.0 mph - N/A   Mostly Cloudy
9:20 PM 42.8 °F 37.0 °F 39.2 °F 87% 30.18 in 6.2 mi ENE 10.4 mph - N/A   Mostly Cloudy
9:50 PM 42.8 °F 35.4 °F 39.2 °F 87% 30.18 in 6.2 mi East 15.0 mph - N/A   Mostly Cloudy
10:20 PM 42.8 °F 34.5 °F 39.2 °F 87% 30.18 in 6.2 mi East 18.4 mph - N/A   Mostly Cloudy
10:50 PM 42.8 °F 34.8 °F 39.2 °F 87% 30.18 in 6.2 mi East 17.3 mph - N/A   Mostly Cloudy
11:20 PM 42.8 °F 35.1 °F 39.2 °F 87% 30.18 in 6.2 mi East 16.1 mph - N/A   Mostly Cloudy
11:50 PM 42.8 °F 35.8 °F 39.2 °F 87% 30.18 in 6.2 mi East 13.8 mph - N/A   Mostly Cloudy